Regional Weather Roundup
Issued by NWS Charleston, SC

Current Version | Previous Version | Text Only | Print | Product List | Glossary Off
Versions: 1 2 3 4 5 6 7 8 9 10 11 12 13 14 15 16 17 18 19 20 21 22 23 24 25 26 27 28 29 30 31 32 33 34 35 36 37 38 39 40 41 42 43 44 45 46 47 48 49 50
000 ASUS42 KCHS 230627 RWRCHS REGIONAL WEATHER ROUNDUP NATIONAL WEATHER SERVICE CHARLESTON SC 200 AM EDT TUE MAY 23 2017 NOTE: "FAIR" INDICATES FEW OR NO CLOUDS BELOW 12,000 FEET WITH NO SIGNIFICANT WEATHER AND/OR OBSTRUCTIONS TO VISIBILITY. NOT ALL STATIONS ARE QUALITY CONTROLLED. USE DATA WITH CAUTION... ESPECIALLY DEWPOINT OBSERVATIONS. SCZ027-030-031-034>040-042>050-230700- ...SOUTHEAST SOUTH CAROLINA... CITY SKY/WX TMP DP RH WIND PRES REMARKS N CHARLESTON LGT RAIN 70 67 90 SW9 29.90F FOG 6HR MIN TEMP: 70; 6HR MAX TEMP: 76; 6HR PCP: 0.25; WATERFRONT PRK N/A 71 70 96 VRB2 29.91F JOHNS ISLAND HVY RAIN 72 70 94 W6 29.91F VSB 1 PINOPOLIS NOT AVBL MONCKS CORNER LGT RAIN 68 68 100 S9 29.88F SUMMERVILLE LGT RAIN 68 68 100 S5 29.90F BEAUFORT MCAS LGT RAIN 71 70 96 CALM 29.90F 6HR MIN TEMP: 70; 6HR MAX TEMP: 77; 6HR PCP: 1.36; BEAUFORT ARPT FAIR 70 68 94 CALM 29.90F HILTON HEAD IS CLOUDY 72 72 100 CALM 29.91F WALTERBORO DRIZZLE 68 68 100 S5 29.89F ALLENDALE MOCLDY 70 70 100 SE5 29.87F ...SOUTHERN MIDLANDS AND PEE DEE... CITY SKY/WX TMP DP RH WIND PRES REMARKS GEORGETOWN RAIN 70 70 100 CALM 29.93F KINGSTREE CLOUDY 68 66 94 CALM 29.90F ORANGEBURG CLOUDY 71 70 96 CALM 29.90F 6HR MIN TEMP: 70; 6HR MAX TEMP: 71; 6HR PCP: 0.08; BARNWELL MOCLDY 72 72 100 CALM 29.88F AIKEN CLOUDY 68 68 100 CALM 29.93F MANNING CLOUDY 70 70 100 SE9 29.89F FOG COLUMBIA CLOUDY 71 68 90 CALM 29.90F 6HR MIN TEMP: 70; 6HR MAX TEMP: 71; 6HR PCP: TRACE; SUMTER LGT RAIN 70 68 94 CALM 29.87F 6HR MIN TEMP: 69; 6HR MAX TEMP: 70; 6HR PCP: 0.01; FLORENCE CLOUDY 69 69 100 E5 29.92F 6HR MIN TEMP: 69; 6HR MAX TEMP: 70; 6HR PCP: 0.12; MYRTLE BEACH CLOUDY 72 68 87 E12 29.92 N MYRTLE BEACH CLOUDY 71 67 87 E8 29.91F 6HR MIN TEMP: 68; 6HR MAX TEMP: 75; 6HR PCP: 0.47; $$ GAZ063-065-086>088-099>101-113>116-118-119-134>141-150-230700- ...SOUTHEAST GEORGIA... CITY SKY/WX TMP DP RH WIND PRES REMARKS SAVANNAH ARPT RAIN 72 71 97 S8 29.91F 6HR MIN TEMP: 71; 6HR MAX TEMP: 74; 6HR PCP: 0.90; HUNTER AAF MOCLDY 73 73 100 CALM 29.88F 6HR PCP: 0.02; FORT STEWART CLOUDY 72 70 94 S3 29.89F 6HR MIN TEMP: 72; 6HR MAX TEMP: 78; 6HR PCP: 0.21; STATESBORO CLOUDY 72 72 100 S3 29.89F SYLVANIA CLOUDY 71 71 100 SW5 29.89F CLAXTON FAIR N/A N/A N/A CALM 29.90F ...CSRA...CENTRAL AND FAR SOUTHEAST GEORGIA... CITY SKY/WX TMP DP RH WIND PRES REMARKS THOMSON CLOUDY 70 68 95 CALM 29.95F AUGUSTA-BUSH CLOUDY 73 70 90 CALM 29.89F 6HR MIN TEMP: 71; 6HR MAX TEMP: 73; 6HR PCP: TRACE; AUGUSTA-DANIEL CLOUDY 72 67 84 CALM 29.89F SWAINSBORO CLOUDY 70 70 100 S5 29.90F VIDALIA MOCLDY 72 70 94 S3 29.94R EASTMAN RAIN 71 71 100 S3 29.92F HAZLEHURST MOCLDY 73 73 100 S3 29.89F ALMA MOCLDY 73 71 93 SE3 29.91F 6HR MIN TEMP: 73; 6HR MAX TEMP: 83; 6HR PCP: 0.02; WAYCROSS MOCLDY 76 76 100 SW7 29.92F JESUP MOCLDY 72 68 88 CALM 29.92F BAXLEY FAIR 73 73 100 S3 29.91F BRUNSWICK PTCLDY 73 72 94 SW8 29.93S SAINT SIMONS CLOUDY 75 70 84 SW9 29.92F 6HR MIN TEMP: 75; 6HR MAX TEMP: 78; 6HR PCP: 0.04; $$ SCZ027-028-034-036>038-045-046-048>050-GAZ119-141-230700- ...LAKE AND SUPPLEMENTAL COASTAL OBSERVATIONS... STATION/POSITION TIME TEMP WIND PRES WAVE SWELL AIR SEA DIR/SP/G HT/PER HT/PER/DIR (UTC) (F) (DEG/KT/KT) (MB) (FT/S) (FT/S/D) WINYAH BAY 0530 72 70/ 6 1013.0F LAKE MURRAY 0550 71 100/ 3/ 6 1012.5F ACE BASIN NERRS 0545 69 CALM 1014.0F FORT PULASKI 0600 75 80 260/ 7/ 10 1012.8 SAPELO ISLAND 0545 74 200/ 9 1013.0F $$ ANZ835-935-AMZ111-154-330-350-352-354-370-450-454-472-230700- ...C-MAN AND BUOY OBSERVATIONS... STATION/POSITION TIME TEMP WIND PRES WAVE SWELL AIR SEA DIR/SP/G HT/PER HT/PER/DIR (UTC) (F) (DEG/KT/KT) (MB) (FT/S) (FT/S/D) BUOY 41004 0610 75 78 190/ 12/ 35 1011.8 BUOY 41008 0550 78 78 190/ 19/ 23 1012.8F 4/ 5 2/ 90/ 8 FOLLY BEACH CMAN 0600 70 210/ 3/ 5 1013.8F CAPERS NEARSHORE 0608 76 77 210/ 17/ 25 1012.4F FRIPP NEARSHORE 0608 74 79 280/ 12/ 19 1012.6F STATION/POSITION TIME TEMP WIND PRES WAVE SWELL AIR SEA DIR/SP/G HT/PER HT/PER/DIR (UTC) (F) (DEG/KT/KT) (MB) (FT/S) (FT/S/D) 5E ST. MARYS GA 0600 79 N/A 4/ 5 FRYING PAN BUOY 0610 71 77 50/ 8/ 10 1013.1 BUOY 41025 0550 74 78 200/ 17/ 19 1013.8F 3/ 8 2/ 80/ 8 CAPE LOOKOUT NC 0600 72 240/ 5/ 7 1013.6F BUOY 41002 0550 75 76 170/ 14/ 17 1016.7F 3/ 8 2/ 40/ 8 BUOY 41010 0610 78 79 170/ 16/ 17 1015.4 ST AUGUSTINE FL 0600 72 79 200/ 8/ 10 1015.0F $$

USA.gov is the U.S. government's official web portal to all federal, state and local government web resources and services.